Regional Weather Roundup
Issued by NWS San Diego, CA

Home | Current Version | Previous Version | Text Only | Print | Product List | Glossary On
Versions: 1 2 3 4 5 6 7 8 9 10 11 12 13 14 15 16 17 18 19 20 21 22 23 24 25 26 27 28 29 30 31 32 33 34 35 36 37 38 39 40 41 42 43 44 45 46 47 48 49 50
000
ASUS46 KSGX 240810
RWRSGX

SAN DIEGO HOURLY WEATHER ROUNDUP
NATIONAL WEATHER SERVICE SAN DIEGO CA
1200 AM PST MON NOV 24 2014

NOTE: "FAIR" INDICATES FEW OR NO CLOUDS BELOW 12,000 FEET WITH NO
SIGNIFICANT WEATHER AND/OR OBSTRUCTIONS TO VISIBILITY.

CAZ042-043-060-061-PZZ750-775-240900-

GREATER SAN DIEGO AREA

CITY           SKY/WX    TMP DP  RH WIND       PRES   REMARKS
LINDBERGH FLD  PTCLDY    60  40  47 CALM      30.14F
POINT LOMA       N/A     59  53  80 E5          N/A
NATIONAL CITY    N/A     55  48  77 CALM      30.14S
CHULA VISTA      N/A     54  42  66 CALM      30.07F
IMPERIAL BEACH CLEAR     57  35  43 E9        30.14S
BROWN FIELD    CLEAR     56  33  42 SE5       30.13F
MIRAMAR MCAS   PTCLDY    53  26  35 NE8       30.13F
MONTGOMERY FLD PTCLDY    56  37  49 CALM      30.14S

$$

NORTH SAN DIEGO COUNTY

CITY           SKY/WX    TMP DP  RH WIND       PRES   REMARKS
CAMP PENDLETON PTCLDY    48  21  34 N5        30.15S
OCEANSIDE AP   PTCLDY    51  30  44 NE5       30.14F
OCEANSIDE HBR    N/A     54  32  43 E9        30.16F
VISTA            N/A     54  28  36 CALM      30.14S
CARLSBAD       PTCLDY    59  21  23 CALM      30.13F
DEL MAR          N/A     59  22  23 CALM      30.16F
LA JOLLA SCRIP   N/A     64  39  40 CALM      30.11S
FALLBROOK        N/A     60  14  16 S6        30.17S
ESCONDIDO        N/A     51  32  47 CALM      30.17S
SAN MARCOS       N/A     59  21  22 CALM      30.13S
POWAY            N/A     47  32  54 CALM      30.17S

$$

EAST SAN DIEGO COUNTY

CITY           SKY/WX    TMP DP  RH WIND       PRES   REMARKS
RAMONA         PTCLDY    52  13  21 E6        30.16F
SANTEE LAKES     N/A     48  31  52 CALM      30.17S
LA MESA          N/A     56  34  43 E3        30.08F
JAMUL            N/A     50  23  34 CALM      30.15F
DESCANSO N       N/A     57  -6   7 E8        30.08F
MT. LAGUNA OBS   N/A     44 -19   6 N10       29.81F
CAMPO            N/A     55   1  11 NE6       30.16S

$$

ORANGE COUNTY AND THE LOS ANGELES BASIN

CITY           SKY/WX    TMP DP  RH WIND       PRES   REMARKS
JOHN WAYNE AP  PTCLDY    58  27  30 CALM      30.14S
LAKE FOREST FR   N/A     60   1   9 NE6       30.03F
SANTA ANA        N/A     51  35  55 CALM      30.10R
HUNTINGTON BCH   N/A     49  40  69 CALM      30.16F
LOS ALAMITOS   FAIR      55  36  48 NE2       30.14S
FULLERTON      PTCLDY    56  26  31 CALM      30.14S
LONG BEACH     PTCLDY    57  37  47 NW3       30.15S
L.A. AP        PTCLDY    65  12  12 N10       30.15S
L.A. DOWNTOWN  PTCLDY    60  17  18 NE3       30.15S

$$

THE INLAND EMPIRE

CITY           SKY/WX    TMP DP  RH WIND       PRES   REMARKS
CORONA         PTCLDY    55  12  18 E6        30.18R
CHINO          PTCLDY    53  19  26 NE3       30.19R
ONTARIO        PTCLDY    50  24  36 CALM      30.17S
RIVERSIDE AP   PTCLDY    55  18  23 NE7       30.18S
RIV CYN CREST    N/A     56  30  36 S1          N/A
MORENO VALLEY    N/A     53  23  31 CALM      29.37F
MARCH ARB      MOCLDY    46  13  26 W2        30.19S
HORSETHIEF CYN   N/A     54   6  14 S2        30.21F
PERRIS           N/A     57  24  27 CALM      30.20R
MENIFEE          N/A     49  28  45 CALM      30.25S
HEMET EAST       N/A     56   5  13 CALM      30.19F
FRENCH VALLEY  FAIR      48  18  29 NE5       30.19S
TEMECULA         N/A     51  30  43 CALM      30.15S

$$

SAN BERNARDINO AND RIVERSIDE COUNTY MOUNTAINS

CITY           SKY/WX    TMP DP  RH WIND       PRES   REMARKS
BIG BEAR AP    MOCLDY    23   5  46 CALM      30.32S
PINE COVE        N/A     46 -13   8 N3        30.11S

$$

SOUTHERN DESERT INCLUDING THE COACHELLA VALLEY

CITY           SKY/WX    TMP DP  RH WIND       PRES   REMARKS
PALM SPRINGS   MOCLDY    56  14  19 N6        30.21S
THOUSAND PALMS   N/A     56  17  21 W2        30.16S
PALM DESERT      N/A     51  27  39 CALM        N/A
THERMAL        PTCLDY    42  22  44 W7        30.17S
BLYTHE         CLEAR     54   7  15 NE5       30.19F
IMPERIAL AP    MOCLDY    48  27  44 W6        30.18S
EL CENTRO NAS    N/A     51  22  31 SW3       30.18S
YUMA AZ        PTCLDY    59   8  13 N12       30.17S

$$

UPPER DESERT

CITY           SKY/WX    TMP DP  RH WIND       PRES   REMARKS
VICTORVILLE AP MOCLDY    39   9  28 SW5       30.27R
HESPERIA         N/A     41  13  31 CALM      30.40R
APPLE VALLEY     N/A     35  15  44 CALM      30.32R
PALMDALE       PTCLDY    40  14  34 CALM      30.27S
LANCASTER      PTCLDY    39  23  52 NE3       30.28R
EDWARDS AFB    MOCLDY    39  10  30 N2        30.26R
DAGGETT        CLEAR     43   8  23 W5        30.26S
29 PALMS N     PTCLDY    44  11  26 W8        30.32F
NEEDLES        CLEAR     49   9  19 W8        30.23S

$$

REGIONAL REPORTS

CITY           SKY/WX    TMP DP  RH WIND       PRES   REMARKS
SANTA BARBARA  CLEAR     51  30  44 CALM      30.16S
SANDBERG       PTCLDY    44  22  41 N15       30.28F
MT. WILSON       N/A     46 -13   8 MISG        N/A
LAS VEGAS NV   PTCLDY    46   9  22 S9        30.23R
PHOENIX AZ     PTCLDY    51  14  22 S3        30.13S
TIJUANA          N/A    N/A N/A N/A MISG        N/A
ENSENADA NW      N/A     65  32  28 NW2       30.09S

$$

OFFSHORE ISLANDS

CITY           SKY/WX    TMP DP  RH WIND       PRES   REMARKS
CATALINA ARPT  PTCLDY    64   8  11 E5        30.19S
SAN NICOLAS IS CLEAR    N/A N/A N/A NW13      30.15F

$$

MARINE AND OFFSHORE BUOY REPORTS

STATION/POSITION SKY/WX   TEMP    WIND        PRES    SWELL
                          AIR SEA DIR/SP/G            HT/PER/DIR
                          (F)     (DEG/KT/KT) (MB)    (FT/S/D)
TANNER BANKS               64 65  330/ 12/ 16 1020.8F   8/310/14
S CLEMENTE BASIN           67 67  360/  8/ 10 1020.0F   7/300/14
SAN NICOLAS IS.               63                N/A     7/300/15
SO. S. ROSA ISLA           64 62  340/ 19/ 23 1020.6F   8/14
W. S. BARBARA CH           63 60  330/ 21/ 25 1021.4F   8/290/14
M. S. BARBARA CH           66 65  310/  6/  6 1021.6S
S. MONICA BASIN            66 65  330/  8/ 10 1021.0R   3/250/14
S PEDRO CHANNEL               66                N/A     2/270/14
DANA POINT                    66                N/A     2/250/13
CMP PENDLETON NS              66                N/A     2/220/13
OCEANSIDE OFFSHR              66                N/A     2/220/13
TORREY PINES OTR              67                N/A     3/270/14
LA JOLLA 1                 63 66  100/  3/  3 1020.5F
MISSION BAY BUOY              67                N/A     3/280/14
SAN DIEGO BAY                 67              1020.9F
POINT LOMA SOUTH              66                N/A     3/280/15

$$




USA.gov is the U.S. government's official web portal to all federal, state and local government web resources and services.